Theta_e
304 305 305 304 304 305 306 306 302 295 292 294 295 298 300 300 299 301 301 299 303 304 304 304 303 304 303 303 303 302 301 302 302 302 301 301 300 300
304 304 305 305 305 306 305 305 305 298 291 295 294 296 297 297 296 298 297 297 298 300 301 301 300 300 299 298 298 300 300 300 300 299 299 298 299 299
301 304 304 305 305 304 304 303 301 299 292 293 295 296 295 295 296 296 297 297 297 297 298 297 296 296 296 296 297 297 297 297 296 296 297 297 297 297
300 303 303 305 304 303 303 301 300 299 295 291 293 293 293 294 294 293 293 294 294 295 295 294 294 294 294 293 293 293 292 292 293 294 294 294 294 294
302 302 302 305 304 302 301 300 299 298 297 294 291 292 291 291 289 289 288 289 290 292 293 293 293 293 292 292 291 290 290 290 290 290 291 291 291 292
303 303 303 303 304 301 300 299 298 297 296 293 291 290 289 289 288 285 284 285 285 287 288 289 289 290 290 290 289 288 288 288 288 288 288 288 289 289
303 305 305 299 296 299 300 299 298 296 294 292 290 289 286 286 285 285 283 283 283 284 283 282 282 282 285 288 287 288 288 288 287 286 286 287 287 287
302 300 299 293 296 296 296 297 299 296 294 293 291 288 287 287 286 284 282 281 279 283 282 279 279 279 284 285 287 287 288 287 286 285 285 285 285 285
302 299 297 295 295 297 295 295 294 296 297 296 292 291 288 288 286 284 284 284 282 282 281 277 278 278 282 285 287 286 286 285 285 284 285 284 284 284
300 299 298 297 296 296 296 295 295 295 296 296 296 294 292 290 289 288 286 282 282 283 281 277 277 277 280 281 286 286 286 285 284 283 283 282 283 283
298 298 297 296 292 294 293 289 288 289 293 295 295 295 293 292 290 286 283 281 280 281 282 277 277 276 274 274 279 283 285 285 284 283 282 281 280 279
293 293 290 296 292 293 293 289 287 287 288 288 290 292 292 291 290 290 285 284 283 281 282 275 275 273 267 272 274 276 277 281 283 284 283 281 279 276
289 289 290 292 292 293 293 290 289 286 289 287 288 288 288 288 288 287 287 287 278 276 281 277 274 271 267 270 269 271 273 274 275 276 280 282 281 278
290 288 288 292 293 293 290 291 290 287 287 286 286 286 286 286 285 284 282 281 281 282 283 279 275 272 267 265 266 267 266 268 272 271 273 276 277 279
289 291 291 292 292 292 291 290 287 287 287 286 286 285 285 282 280 278 278 278 276 276 277 273 278 271 268 264 265 265 264 264 266 266 267 268 268 271
288 288 290 290 290 288 288 288 286 287 287 287 286 280 279 280 280 279 279 280 278 275 274 275 277 270 262 260 262 263 263 264 262 264 265 266 267 268
287 287 286 286 286 286 285 285 285 285 286 282 281 281 280 279 277 278 280 277 278 275 272 271 270 266 264 264 261 258 260 262 264 263 264 261 263 263
287 286 286 286 287 286 285 284 284 284 284 284 283 282 280 279 277 274 275 276 275 273 271 271 271 270 264 265 268 260 258 262 261 261 262 261 260 263
287 287 287 287 287 287 286 286 285 284 283 284 283 282 281 280 277 275 275 274 274 273 272 270 270 261 258 261 261 270 264 260 261 260 262 261 262 262
287 287 287 287 287 287 287 286 286 283 282 282 282 282 280 278 277 276 274 274 271 266 266 264 266 259 264 265 262 262 273 263 264 264 262 261 263 270
286 287 287 287 287 287 287 287 286 283 283 282 281 280 277 277 276 275 274 272 267 265 269 268 264 263 262 265 264 263 265 273 269 266 264 264 263 261
286 287 287 287 287 287 287 287 285 284 283 283 282 281 277 276 274 272 270 269 270 270 269 263 262 265 263 266 264 264 264 264 270 273 272 270 265 261
286 287 287 287 287 287 287 286 285 284 284 283 282 281 278 276 275 273 271 271 271 268 267 264 265 265 265 265 265 266 262 263 264 264 265 272 272 272
Wind_Speed
4 7 6 5 4 7 6 7 6 5 5 6 4 8 8 10 12 12 12 18 19 18 17 19 18 17 18 17 17 18 16 17 19 19 19 20 18 20
5 6 6 5 6 4 4 4 5 10 6 3 6 5 9 11 13 12 13 15 18 17 17 20 19 19 18 15 15 16 18 19 19 19 19 19 19 20
4 7 6 5 5 4 6 6 5 9 13 4 4 6 9 12 11 10 10 10 10 19 20 20 19 18 17 17 18 19 19 18 18 19 18 19 19 19
6 7 8 5 7 6 6 8 8 7 15 14 4 4 7 9 11 12 9 8 9 16 20 19 18 18 19 18 19 19 18 18 18 18 19 18 19 18
6 6 9 10 8 6 7 8 8 8 7 11 9 4 4 6 10 10 10 9 8 17 20 20 19 18 18 19 18 18 18 18 17 17 18 18 17 17
5 6 6 7 11 11 8 9 10 9 9 9 9 7 5 4 6 8 7 5 7 7 13 14 15 16 17 18 16 16 17 17 16 17 17 17 16 17
5 5 5 7 9 10 10 10 12 9 9 9 8 6 6 7 8 4 7 7 6 3 6 6 5 4 6 11 12 13 15 16 15 16 15 15 15 16
5 5 6 8 9 12 12 13 14 16 12 9 7 10 11 6 7 8 10 6 4 2 5 5 3 4 5 5 11 11 14 13 14 13 14 13 14 15
6 5 5 5 7 7 9 9 6 7 10 13 14 13 12 13 12 11 7 3 4 6 7 5 3 4 5 5 12 12 12 12 12 12 11 13 13 14
6 5 5 7 9 10 9 8 6 5 6 4 9 9 7 12 12 8 8 7 10 3 3 4 1 2 3 5 10 11 12 12 11 10 11 10 12 14
6 6 6 5 8 13 9 7 5 2 2 5 9 13 19 21 15 12 7 10 4 3 2 4 3 2 2 2 4 12 11 11 12 11 9 9 9 11
5 6 8 6 14 12 10 9 7 5 6 5 6 11 17 16 21 10 12 11 5 3 5 5 5 4 1 1 2 3 4 10 12 10 10 9 9 3
4 4 4 13 13 11 10 9 7 8 8 8 7 7 7 10 8 5 7 5 4 2 8 5 4 3 3 3 1 2 2 3 3 5 10 11 11 8
7 3 3 11 15 13 8 12 18 12 7 7 8 7 8 7 4 5 5 5 4 1 13 6 5 5 4 2 3 1 2 2 2 2 3 6 9 11
4 6 10 12 12 9 12 16 13 7 8 7 7 6 4 5 8 6 6 8 8 7 5 2 6 6 3 3 4 4 4 1 2 2 2 3 2 2
6 5 7 7 6 7 8 10 5 6 8 7 6 5 5 5 5 3 3 4 4 3 7 7 5 6 4 2 3 4 2 4 2 1 2 1 2 1
6 5 4 5 5 5 5 5 5 6 6 5 7 7 6 6 3 2 4 2 3 5 3 4 7 8 5 7 3 1 3 3 2 3 3 1 3 2
3 3 5 6 8 9 8 7 6 8 7 8 7 8 8 9 7 3 2 3 4 4 4 4 5 3 4 5 5 4 1 3 2 2 2 3 2 3
2 5 6 7 8 8 9 9 9 8 8 8 9 9 8 7 9 6 6 5 3 5 5 4 5 4 4 4 3 4 4 2 4 2 2 2 3 3
5 5 7 8 8 9 8 9 7 8 9 8 8 9 9 9 9 8 7 6 6 3 4 2 4 4 6 7 5 3 7 4 3 3 3 1 2 4
7 6 6 6 7 7 7 8 9 9 9 9 9 9 9 9 9 8 8 10 8 4 9 10 5 5 3 4 4 1 1 5 6 4 4 3 1 2
6 8 6 6 7 7 7 7 8 9 10 10 9 9 9 10 10 10 10 12 10 9 4 4 4 5 2 3 3 5 3 1 0 8 9 5 5 4
7 7 6 7 7 8 8 8 9 9 10 10 10 9 10 10 9 9 9 9 8 7 8 6 5 2 2 2 4 5 4 3 2 2 1 2 4 4
Wind_Direction
76 106 100 76 65 98 115 115 127 116 54 16 65 29 73 78 73 82 83 81 88 88 87 84 81 79 73 67 68 65 65 68 64 64 66 58 59 54
106 91 93 97 93 77 75 65 95 123 107 40 51 67 79 81 75 80 75 74 75 79 81 83 81 76 70 68 74 77 71 68 69 68 66 63 59 56
70 111 97 108 94 81 82 82 80 108 112 87 74 71 78 93 85 79 75 75 75 82 83 81 78 78 79 80 78 73 70 73 71 68 66 61 56 52
126 128 125 114 96 93 105 105 108 118 126 125 110 87 76 81 89 84 77 74 80 81 83 83 83 84 82 81 78 73 77 71 69 67 64 59 57 53
147 141 149 136 118 108 107 109 110 114 125 133 127 102 93 96 94 81 76 77 69 75 80 78 77 82 85 81 79 79 74 74 70 67 64 59 56 51
149 143 146 149 140 134 126 127 127 123 119 121 122 123 116 116 104 113 99 75 80 72 67 64 69 77 82 83 81 82 78 74 71 68 64 60 56 51
142 137 133 120 127 133 139 146 140 135 135 136 140 134 137 154 154 136 117 108 69 63 73 49 51 50 63 77 84 85 84 83 72 68 65 64 58 54
152 130 124 121 128 133 137 156 160 151 155 152 163 165 165 153 141 145 136 141 116 321 86 60 34 39 71 63 75 79 79 71 71 69 68 64 62 58
147 146 137 119 127 129 133 128 122 170 166 167 164 177 166 167 152 151 158 122 117 138 116 64 9 52 12 64 85 80 68 71 77 70 64 69 63 60
150 151 163 161 151 146 147 138 144 159 164 164 180 167 157 154 155 143 127 93 105 119 118 110 3 49 30 24 65 71 81 85 75 75 71 60 54 56
147 147 146 147 153 141 133 128 126 117 53 153 140 141 149 155 148 130 130 136 140 166 163 119 163 105 36 2 12 35 49 72 84 81 75 72 67 62
147 149 156 168 160 160 146 152 159 183 145 109 119 135 150 158 160 164 155 159 134 140 172 108 141 146 66 330 7 9 6 39 38 63 90 82 72 38
171 174 181 163 171 172 158 169 173 135 130 122 122 133 145 155 166 146 172 165 130 139 168 117 141 130 93 138 43 6 27 15 31 26 20 58 65 71
186 177 172 173 171 168 154 140 139 130 133 134 140 149 158 164 140 107 89 80 52 132 159 126 131 145 130 131 165 355 12 15 52 44 22 41 44 41
158 172 161 173 165 153 149 149 145 148 150 155 162 163 153 124 113 88 79 86 71 52 49 73 137 131 117 132 156 173 135 341 26 105 46 41 352 347
121 128 142 140 141 129 140 153 160 166 166 165 155 114 116 135 136 133 130 144 100 77 35 37 105 121 118 89 117 145 166 160 172 126 127 23 345 348
118 116 132 142 145 155 158 168 161 155 162 138 148 149 147 146 125 143 130 122 122 141 124 46 67 79 72 138 98 171 157 140 172 156 102 69 324 328
124 151 179 179 183 181 180 177 182 181 169 156 159 165 166 167 160 142 130 154 146 154 137 144 148 105 34 9 90 144 129 132 163 150 93 111 303 290
195 187 191 191 197 189 187 188 190 191 169 172 169 170 167 165 160 172 163 155 142 148 144 146 167 119 105 182 293 186 141 167 136 114 145 159 178 250
203 198 207 202 198 193 190 192 181 167 177 176 176 169 169 165 169 173 174 173 153 126 140 151 186 176 150 181 168 223 183 134 160 149 159 177 250 300
218 221 212 204 205 202 197 189 182 179 181 179 177 173 167 168 178 175 172 165 139 157 183 195 195 151 127 100 75 116 292 198 172 151 150 130 140 313
216 219 217 209 202 197 191 188 181 179 178 181 183 177 168 175 177 175 174 173 182 180 157 110 134 139 117 136 147 143 151 48 46 173 174 165 167 208
219 226 218 213 208 196 191 190 188 188 188 184 180 179 170 178 174 174 175 172 170 152 148 145 146 128 117 115 127 137 133 134 139 124 51 112 186 184